"Pseudo-MPEC" for P1162nS

Created 2020 Sep 21 3:07:22 UT using Find_Orb

Click here for an explanation of pseudo-MPECs

 
 Astrometry: 
     P1162nS  C2020 09 12hplhJNXH=M'!%[0CAstrometryN_ZSOLcod(3RyZt#.U[VLb7T=pF51
     P1162nS  C2020 09 12iM9=gNJA#P+AFo$3!WGO4V^oredacted;f1WWeNMTALCoPdr'om'F51
     P1162nS  C2020 09 12Kns(#rae8rvJ7Kwl'rclickrJgH49)^a0V2YP;u-1Gnw_As/Xxa$F51
     P1162nS  C2020 09 14%YvO!yn(UmXBLb7!oHHdya_MKqKfvQyLZ%xIbXU3[uk6k:^/9yn@F51
     P1162nS  C2020 09 14J?l6;w6BWjG0m/dLwSsrif'MY'u+:lv0Cf,0-d$=O*5L0Cy\2=HnF51
     P1162nS  C2020 09 14j(O?\Z4here(0xKv*%-7je.?oDk%gESbdG-FPL(e:0u8[LBaY4+DF51
     P1162nS  C2020 09 14BJm@foror-:h;WSdSexplanationmj6X+F-C\Y@wlT\jv,]=U0$pF51
     P1162nS ^C2020 09 15.34741223 11 14.597-22 26 22.53   ~9F9q 22.61GVNEOCP568
     P1162nS ^C2020 09 15.34836023 11 14.583-22 26 20.73   ~9F9q 22.28GVNEOCP568
     P1162nS ^C2020 09 15.34930723 11 14.568-22 26 18.97   ~9F9q 22.86GVNEOCP568

Station data:
(568) Mauna Kea  (N19.826116 W155.472200)  US/Hawaii.
(F51) Pan-STARRS 1, Haleakala  (N20.707235 W156.255910)  US/Hawaii.
   Observers N. Primak, A. Schultz, S. Watters, J. Thiel, T. Goggia. Measurer
   PS1 Science Consortium. 1.8-m Ritchey-Chrétien + CCD.

Orbital elements:  P1162nS
   Perihelion 2020 Jul 10.684660 +/- 0.523 TT = 16:25:54 (JD 2459041.184660)
Epoch 2020 Sep 15.0 TT = JDT 2459107.5   Earth MOID: 0.0045   Ma: 0.0403
M  20.07947793 +/- 2.9              (J2000 ecliptic)          AutoNEOCP
n   0.30278782 +/- 0.0426           Peri.  215.60107 +/- 2.2
a   2.19639496 +/- 0.206            Node    60.24117 +/- 2.1
e   0.5788907 +/- 0.0403            Incl.    3.53984 +/- 0.21
P   3.26                   H 24.5   G  0.15   U 10.6  
q 0.92492222 +/- 0.00207    Q 3.46786770 +/- 0.453
From 10 observations 2020 Sept. 12-15; mean residual 0".16
Residuals in arcseconds: 
200912 F51  .01+  .41-    200914 F51  .05-  .01+    200915 568  .00   .01+    
200912 F51  .02+  .51+    200914 F51  .07+  .16-    200915 568  .01-  .04-    
200912 F51  .03-  .09-    200914 F51  .02+  .10+    
200914 F51  .03-  .03+    200915 568  .00   .03+    

Ephemerides (geocentric):
Date (UTC) HH   RA              Dec         delta   r     elong  mag " sig PA
---- -- -- --  -------------   -----------  ------ ------ -----  --- ---- ---
2020 09 21 03  23 11 19.319   -19 40 17.64  .32092 1.3076 158.3 23.5 3.88  53
2020 09 21 04  23 11 19.491   -19 39 13.79  .32131 1.3080 158.3 23.5 3.96  53
2020 09 21 05  23 11 19.665   -19 38 10.04  .32170 1.3083 158.3 23.5 4.04  53
2020 09 21 06  23 11 19.840   -19 37 06.39  .32209 1.3086 158.3 23.5 4.12  53
2020 09 21 07  23 11 20.018   -19 36 02.84  .32248 1.3090 158.3 23.5 4.20  54
2020 09 21 08  23 11 20.198   -19 34 59.38  .32287 1.3093 158.3 23.5 4.28  54
2020 09 21 09  23 11 20.380   -19 33 56.01  .32326 1.3096 158.2 23.5 4.36  54
2020 09 21 10  23 11 20.563   -19 32 52.74  .32365 1.3100 158.2 23.5 4.45  54
2020 09 21 11  23 11 20.749   -19 31 49.57  .32404 1.3103 158.2 23.5 4.53  54
2020 09 21 12  23 11 20.937   -19 30 46.49  .32443 1.3107 158.2 23.5 4.62  55
2020 09 21 13  23 11 21.127   -19 29 43.50  .32482 1.3110 158.2 23.5 4.70  55
2020 09 21 14  23 11 21.319   -19 28 40.61  .32522 1.3113 158.2 23.5 4.79  55
2020 09 21 15  23 11 21.513   -19 27 37.81  .32561 1.3117 158.1 23.6 4.88  55
2020 09 21 16  23 11 21.708   -19 26 35.11  .32600 1.3120 158.1 23.6 4.97  55
2020 09 21 17  23 11 21.906   -19 25 32.50  .32639 1.3123 158.1 23.6 5.06  55
2020 09 21 18  23 11 22.106   -19 24 29.98  .32679 1.3127 158.1 23.6 5.15  56
2020 09 21 19  23 11 22.308   -19 23 27.56  .32718 1.3130 158.1 23.6 5.24  56
2020 09 21 20  23 11 22.512   -19 22 25.22  .32757 1.3133 158.1 23.6 5.33  56
2020 09 21 21  23 11 22.718   -19 21 22.98  .32796 1.3137 158.0 23.6 5.42  56
2020 09 21 22  23 11 22.927   -19 20 20.83  .32836 1.3140 158.0 23.6 5.52  56
2020 09 21 23  23 11 23.137   -19 19 18.78  .32875 1.3144 158.0 23.6 5.61  56
2020 09 22 00  23 11 23.349   -19 18 16.81  .32915 1.3147 158.0 23.6 5.71  56
2020 09 22 01  23 11 23.563   -19 17 14.94  .32954 1.3150 158.0 23.6 5.80  56
2020 09 22 02  23 11 23.780   -19 16 13.15  .32994 1.3154 157.9 23.6 5.90  57
2020 09 22 03  23 11 23.998   -19 15 11.46  .33033 1.3157 157.9 23.6 6.00  57
2020 09 22 04  23 11 24.218   -19 14 09.86  .33073 1.3160 157.9 23.6 6.10  57
2020 09 22 05  23 11 24.441   -19 13 08.34  .33112 1.3164 157.9 23.6 6.20  57
2020 09 22 06  23 11 24.665   -19 12 06.92  .33152 1.3167 157.9 23.6 6.30  57
2020 09 22 07  23 11 24.892   -19 11 05.59  .33191 1.3171 157.9 23.6 6.40  57
2020 09 22 08  23 11 25.120   -19 10 04.34  .33231 1.3174 157.8 23.6 6.51  57
2020 09 22 09  23 11 25.351   -19 09 03.18  .33270 1.3177 157.8 23.6 6.61  57
2020 09 22 10  23 11 25.584   -19 08 02.12  .33310 1.3181 157.8 23.6 6.72  57
2020 09 22 11  23 11 25.818   -19 07 01.14  .33350 1.3184 157.8 23.6 6.82  57
2020 09 22 12  23 11 26.055   -19 06 00.25  .33389 1.3187 157.8 23.6 6.93  58
2020 09 22 13  23 11 26.294   -19 04 59.44  .33429 1.3191 157.7 23.6 7.04  58
2020 09 22 14  23 11 26.535   -19 03 58.73  .33469 1.3194 157.7 23.6 7.15  58
2020 09 22 15  23 11 26.778   -19 02 58.10  .33509 1.3198 157.7 23.6 7.26  58
2020 09 22 16  23 11 27.023   -19 01 57.56  .33548 1.3201 157.7 23.6 7.37  58
2020 09 22 17  23 11 27.270   -19 00 57.10  .33588 1.3204 157.7 23.6 7.48  58
2020 09 22 18  23 11 27.519   -18 59 56.74  .33628 1.3208 157.7 23.6 7.59  58
2020 09 22 19  23 11 27.771   -18 58 56.46  .33668 1.3211 157.6 23.6 7.70  58
2020 09 22 20  23 11 28.024   -18 57 56.26  .33708 1.3214 157.6 23.7 7.82  58
2020 09 22 21  23 11 28.279   -18 56 56.15  .33747 1.3218 157.6 23.7 7.93  58
2020 09 22 22  23 11 28.537   -18 55 56.13  .33787 1.3221 157.6 23.7 8.05  58
2020 09 22 23  23 11 28.796   -18 54 56.19  .33827 1.3225 157.6 23.7 8.16  58
2020 09 23 00  23 11 29.058   -18 53 56.33  .33867 1.3228 157.5 23.7 8.28  58
2020 09 23 01  23 11 29.321   -18 52 56.57  .33907 1.3231 157.5 23.7 8.40  58
2020 09 23 02  23 11 29.587   -18 51 56.88  .33947 1.3235 157.5 23.7 8.52  58